Date String (YYYY-MM-DD hh:mm:ss) UTC,Instrument flags,Ambient pressure (hPa),Sample flow (lpm),Bypass flow (lpm),Sample temperature (°C),Ambient temperature (°C),ASC tube jacket temperature (°C),LED temperature (°C),Box temperature (°C),Sample RH (%),Span deviation,Mass concentration (μg/m³),Mass concentration (μg/m³),Mass concentration (μg/m³)
DateTimeUTC,F1_M11,P_M11,Q1_M11,Q2_M11,T1_M11,T2_M11,T3_M11,T4_M11,T5_M11,U1_M11,ZSPAN_M11,X0_M11,X2_M11,X1_M11
2022-04-30 19:00:00,,0824.5,4.99,0.00,24.1,23.6,00.0,33.0,25.9,11.5,0000.0,0010.57,0004.00,0003.32
2022-04-30 19:01:00,,0824.5,4.99,0.00,24.1,23.6,00.0,33.0,25.9,11.3,0000.0,0011.14,0003.98,0003.31
2022-04-30 19:02:00,,0824.5,5.00,0.00,24.1,23.7,00.0,33.0,25.9,11.2,0000.0,0011.22,0003.98,0003.28
2022-04-30 19:03:00,,0824.4,5.00,0.00,24.1,23.7,00.0,33.0,26.0,11.4,0000.0,0010.75,0003.95,0003.26
2022-04-30 19:04:00,,0824.4,5.01,0.00,24.1,23.7,00.0,33.0,26.0,11.2,0000.0,0010.91,0003.92,0003.24
2022-04-30 19:05:00,,0824.4,5.00,0.00,24.2,23.7,00.0,33.1,26.1,11.4,0000.0,0011.18,0003.89,0003.22
2022-04-30 19:06:00,,0824.4,4.99,0.00,24.2,23.8,00.0,33.1,26.1,11.5,0000.0,0011.42,0003.84,0003.19
2022-04-30 19:07:00,,0824.4,5.00,0.00,24.2,23.8,00.0,33.1,26.1,11.4,0000.0,0011.32,0003.80,0003.16
2022-04-30 19:08:00,,0824.4,5.00,0.00,24.3,23.8,00.0,33.1,26.2,11.6,0000.0,0011.33,0003.81,0003.13
2022-04-30 19:09:00,,0824.4,5.00,0.00,24.3,23.8,00.0,33.1,26.1,11.4,0000.0,0010.93,0003.82,0003.12
2022-04-30 19:10:00,,0824.4,5.00,0.00,24.3,23.9,00.0,33.1,26.2,11.3,0000.0,0011.21,0003.85,0003.12
2022-04-30 19:11:00,,0824.4,4.99,0.00,24.3,23.9,00.0,33.1,26.2,11.3,0000.0,0011.97,0003.86,0003.13
2022-04-30 19:12:00,,0824.4,5.00,0.00,24.3,23.9,00.0,33.2,26.2,11.5,0000.0,0011.52,0003.90,0003.17
2022-04-30 19:13:00,,0824.4,5.02,0.00,24.3,23.9,00.0,33.2,26.2,11.1,0000.0,0011.27,0003.91,0003.22
2022-04-30 19:14:00,,0824.4,5.00,0.00,24.3,23.9,00.0,33.2,26.2,11.1,0000.0,0011.12,0003.96,0003.27
2022-04-30 19:15:00,,0824.3,4.99,0.00,24.3,23.9,00.0,33.2,26.2,11.3,0000.0,0011.23,0004.06,0003.31
2022-04-30 19:16:00,,0824.4,5.00,0.00,24.3,23.9,00.0,33.2,26.2,11.7,0000.0,0011.39,0004.12,0003.36
2022-04-30 19:17:00,,0824.4,5.00,0.00,24.4,23.9,00.0,33.2,26.3,11.2,0000.0,0011.26,0004.17,0003.41
2022-04-30 19:18:00,,0824.4,4.99,0.00,24.4,24.0,00.0,33.2,26.3,10.9,0000.0,0012.26,0004.23,0003.48
2022-04-30 19:19:00,,0824.4,5.00,0.00,24.4,24.0,00.0,33.2,26.3,10.8,0000.0,0011.64,0004.31,0003.55
2022-04-30 19:20:00,,0824.3,4.99,0.00,24.4,23.9,00.0,33.2,26.3,11.1,0000.0,0012.17,0004.36,0003.59
2022-04-30 19:21:00,,0824.3,5.02,0.00,24.4,23.9,00.0,33.3,26.3,11.1,0000.0,0012.40,0004.38,0003.61
2022-04-30 19:22:00,,0824.3,5.00,0.00,24.4,24.0,00.0,33.3,26.3,11.3,0000.0,0011.91,0004.40,0003.60
2022-04-30 19:23:00,,0824.3,4.99,0.00,24.5,24.0,00.0,33.3,26.4,11.5,0000.0,0011.83,0004.41,0003.59
2022-04-30 19:24:00,,0824.4,5.00,0.00,24.5,24.0,00.0,33.3,26.3,11.1,0000.0,0011.84,0004.40,0003.57
2022-04-30 19:25:00,,0824.3,5.00,0.00,24.5,24.0,00.0,33.3,26.4,11.1,0000.0,0011.85,0004.39,0003.56
2022-04-30 19:26:00,,0824.3,5.00,0.00,24.5,24.0,00.0,33.3,26.4,11.1,0000.0,0011.72,0004.34,0003.55
2022-04-30 19:27:00,,0824.3,5.00,0.00,24.5,24.0,00.0,33.3,26.4,11.2,0000.0,0011.07,0004.30,0003.54
2022-04-30 19:28:00,,0824.3,5.00,0.00,24.5,24.1,00.0,33.4,26.4,11.1,0000.0,0011.05,0004.28,0003.51
2022-04-30 19:29:00,,0824.3,5.01,0.00,24.5,24.1,00.0,33.4,26.4,11.0,0000.0,0010.08,0004.24,0003.48
2022-04-30 19:30:00,,0824.3,5.00,0.00,24.5,24.1,00.0,33.4,26.5,11.1,0000.0,0009.69,0004.16,0003.44
2022-04-30 19:31:00,,0824.3,5.00,0.00,24.6,24.1,00.0,33.4,26.5,11.0,0000.0,0009.21,0004.11,0003.40
2022-04-30 19:32:00,,0824.3,4.99,0.00,24.6,24.1,00.0,33.4,26.5,11.1,0000.0,0009.35,0004.10,0003.38
2022-04-30 19:33:00,,0824.4,4.99,0.00,24.6,24.1,00.0,33.4,26.5,10.9,0000.0,0010.22,0004.12,0003.41
2022-04-30 19:34:00,,0824.3,4.99,0.00,24.6,24.1,00.0,33.4,26.5,10.7,0000.0,0010.54,0004.16,0003.47
2022-04-30 19:35:00,,0824.3,5.00,0.00,24.6,24.2,00.0,33.5,26.5,11.1,0000.0,0010.90,0004.23,0003.53
2022-04-30 19:36:00,,0824.2,5.01,0.00,24.7,24.2,00.0,33.5,26.6,11.0,0000.0,0010.79,0004.27,0003.57
2022-04-30 19:37:00,,0824.3,4.99,0.00,24.7,24.2,00.0,33.5,26.6,11.1,0000.0,0010.78,0004.31,0003.59
2022-04-30 19:38:00,,0824.2,5.00,0.00,24.7,24.2,00.0,33.5,26.6,11.4,0000.0,0010.85,0004.32,0003.60
2022-04-30 19:39:00,,0824.3,5.00,0.00,24.7,24.2,00.0,33.5,26.6,11.1,0000.0,0010.54,0004.34,0003.63
2022-04-30 19:40:00,,0824.3,5.00,0.00,24.7,24.2,00.0,33.5,26.5,11.0,0000.0,0010.58,0004.38,0003.67
2022-04-30 19:41:00,,0824.2,4.99,0.00,24.7,24.1,00.0,33.5,26.5,10.8,0000.0,0011.04,0004.49,0003.72
2022-04-30 19:42:00,,0824.2,4.99,0.00,24.7,24.1,00.0,33.5,26.5,10.9,0000.0,0011.06,0004.56,0003.77
2022-04-30 19:43:00,,0824.2,5.00,0.00,24.7,24.1,00.0,33.5,26.5,11.2,0000.0,0010.73,0004.60,0003.84
2022-04-30 19:44:00,,0824.2,5.02,0.00,24.7,24.1,00.0,33.5,26.5,11.1,0000.0,0010.35,0004.61,0003.87
2022-04-30 19:45:00,,0824.2,4.99,0.00,24.7,24.1,00.0,33.6,26.5,10.9,0000.0,0011.14,0004.62,0003.86
2022-04-30 19:46:00,,0824.2,4.99,0.00,24.7,24.2,00.0,33.6,26.5,10.8,0000.0,0011.19,0004.64,0003.87
2022-04-30 19:47:00,,0824.2,4.99,0.00,24.7,24.2,00.0,33.6,26.6,10.9,0000.0,0012.03,0004.66,0003.88
2022-04-30 19:48:00,,0824.2,4.99,0.00,24.7,24.2,00.0,33.6,26.6,10.9,0000.0,0012.03,0004.69,0003.92
2022-04-30 19:49:00,,0824.2,5.01,0.00,24.7,24.2,00.0,33.6,26.6,10.8,0000.0,0012.36,0004.74,0003.96
2022-04-30 19:50:00,,0824.2,5.00,0.00,24.8,24.2,00.0,33.6,26.6,10.8,0000.0,0012.87,0004.75,0003.98
2022-04-30 19:51:00,,0824.2,5.00,0.00,24.8,24.3,00.0,33.6,26.7,11.0,0000.0,0012.88,0004.72,0003.95
2022-04-30 19:52:00,,0824.3,5.00,0.00,24.8,24.3,00.0,33.6,26.7,11.1,0000.0,0012.98,0004.68,0003.94
2022-04-30 19:53:00,,0824.2,5.01,0.00,24.8,24.3,00.0,33.6,26.7,11.0,0000.0,0014.03,0004.70,0003.92
2022-04-30 19:54:00,,0824.2,5.00,0.00,24.8,24.3,00.0,33.7,26.7,10.9,0000.0,0014.02,0004.73,0003.90
2022-04-30 19:55:00,,0824.2,5.00,0.00,24.8,24.4,00.0,33.7,26.7,11.1,0000.0,0013.76,0004.74,0003.89
2022-04-30 19:56:00,,0824.3,5.00,0.00,24.9,24.4,00.0,33.7,26.7,10.9,0000.0,0013.36,0004.76,0003.89
2022-04-30 19:57:00,,0824.2,4.99,0.00,24.9,24.4,00.0,33.7,26.7,10.6,0000.0,0013.07,0004.78,0003.91
2022-04-30 19:58:00,,0824.1,4.99,0.00,24.9,24.4,00.0,33.7,26.7,10.6,0000.0,0012.64,0004.79,0003.92
2022-04-30 19:59:00,,0824.2,4.99,0.00,24.9,24.4,00.0,33.7,26.8,10.8,0000.0,0013.39,0004.80,0003.91
